| time (UTC) | temp C | wind direction | speed KPH | gust KPH | rain 1hr cm | rain 24hr cm | rain mn cm | humidity % | barometer mb |
| 20260506181707 | 2 | 0 | 0.0 | 1.6 | 0.00 | 0.03 | 0.00 | 90 | 1020.1 |
| 20260506181200 | 2 | 98 | 0.0 | 0.0 | 0.00 | 0.03 | 0.00 | 90 | 1020.1 |
| 20260506180654 | 2 | 98 | 0.0 | 1.6 | 0.00 | 0.03 | 0.00 | 91 | 1020.0 |
| 20260506180148 | 2 | 0 | 0.0 | 3.2 | 0.00 | 0.03 | 0.00 | 91 | 1020.0 |
| 20260506175642 | 2 | 0 | 0.0 | 3.2 | 0.00 | 0.03 | 0.00 | 91 | 1020.0 |
| 20260506175136 | 2 | 95 | 0.0 | 1.6 | 0.00 | 0.03 | 0.00 | 91 | 1020.0 |
| 20260506174630 | 1 | 95 | 0.0 | 3.2 | 0.00 | 0.03 | 0.00 | 91 | 1019.9 |
| 20260506174126 | 1 | 95 | 0.0 | 3.2 | 0.00 | 0.03 | 0.00 | 91 | 1020.0 |
| 20260506173626 | 1 | 95 | 0.0 | 3.2 | 0.00 | 0.03 | 0.00 | 91 | 1020.0 |
| 20260506173123 | 1 | 95 | 1.6 | 4.8 | 0.00 | 0.03 | 0.00 | 91 | 1020.0 |
| 20260506172624 | 1 | 95 | 1.6 | 4.8 | 0.00 | 0.03 | 0.00 | 91 | 1020.0 |
| 20260506172123 | 1 | 96 | 1.6 | 9.7 | 0.00 | 0.03 | 0.00 | 91 | 1019.9 |
| 20260506171623 | 0 | 96 | 1.6 | 9.7 | 0.00 | 0.05 | 0.00 | 91 | 1019.9 |
| 20260506171119 | 0 | 78 | 1.6 | 9.7 | 0.00 | 0.05 | 0.00 | 91 | 1019.9 |
| 20260506170619 | 0 | 81 | 1.6 | 8.0 | 0.00 | 0.05 | 0.00 | 91 | 1019.7 |
| 20260506170119 | 0 | 86 | 1.6 | 14.5 | 0.00 | 0.05 | 0.00 | 91 | 1019.7 |
| 20260506165620 | 0 | 78 | 3.2 | 14.5 | 0.00 | 0.05 | 0.00 | 91 | 1019.6 |
| 20260506165119 | 0 | 256 | 1.6 | 11.3 | 0.00 | 0.05 | 0.00 | 91 | 1019.6 |
| 20260506164620 | 0 | 92 | 1.6 | 12.9 | 0.00 | 0.05 | 0.00 | 91 | 1019.5 |
| 20260506164117 | 0 | 87 | 1.6 | 9.7 | 0.00 | 0.05 | 0.00 | 92 | 1019.4 |
| 20260506163615 | 0 | 126 | 3.2 | 12.9 | 0.00 | 0.05 | 0.00 | 91 | 1019.2 |
| 20260506163115 | 0 | 67 | 3.2 | 12.9 | 0.00 | 0.05 | 0.00 | 91 | 1018.9 |
| 20260506162616 | 0 | 94 | 3.2 | 12.9 | 0.00 | 0.05 | 0.00 | 91 | 1019.2 |
| 20260506162115 | 0 | 91 | 1.6 | 12.9 | 0.00 | 0.05 | 0.00 | 91 | 1019.0 |
| 20260506161615 | 1 | 53 | 0.0 | 6.4 | 0.00 | 0.05 | 0.00 | 91 | 1018.9 |
| 20260506161116 | 1 | 333 | 0.0 | 0.0 | 0.00 | 0.05 | 0.00 | 92 | 1018.8 |
| 20260506160616 | 1 | 332 | 0.0 | 1.6 | 0.00 | 0.05 | 0.00 | 92 | 1018.6 |
| 20260506160117 | 1 | 336 | 0.0 | 3.2 | 0.00 | 0.05 | 0.00 | 92 | 1018.6 |
| 20260506155111 | 1 | 335 | 0.0 | 3.2 | 0.00 | 0.05 | 0.00 | 92 | 1018.8 |
| 20260506154612 | 0 | 335 | 0.0 | 4.8 | 0.00 | 0.05 | 0.00 | 91 | 1018.8 |
| 20260506154112 | 0 | 335 | 0.0 | 6.4 | 0.00 | 0.05 | 0.00 | 91 | 1018.7 |
| 20260506153612 | 0 | 334 | 0.0 | 6.4 | 0.00 | 0.05 | 0.00 | 92 | 1018.7 |
| 20260506152611 | 0 | 334 | 0.0 | 4.8 | 0.00 | 0.05 | 0.00 | 92 | 1018.6 |
| 20260506152111 | 0 | 334 | 0.0 | 3.2 | 0.00 | 0.05 | 0.00 | 92 | 1018.5 |
| 20260506151612 | 0 | 333 | 0.0 | 3.2 | 0.00 | 0.05 | 0.00 | 92 | 1018.5 |
| 20260506150600 | 0 | 333 | 0.0 | 8.0 | 0.00 | 0.05 | 0.00 | 92 | 1018.2 |
| 20260506150054 | 0 | 334 | 0.0 | 8.0 | 0.00 | 0.05 | 0.00 | 92 | 1018.2 |
| 20260506145548 | 0 | 334 | 0.0 | 4.8 | 0.00 | 0.05 | 0.00 | 92 | 1018.2 |
| 20260506145041 | 0 | 333 | 0.0 | 4.8 | 0.00 | 0.05 | 0.00 | 92 | 1018.2 |
| 20260506144532 | 0 | 333 | 0.0 | 4.8 | 0.00 | 0.05 | 0.00 | 92 | 1018.2 |
| 20260506144026 | 0 | 334 | 0.0 | 3.2 | 0.00 | 0.05 | 0.00 | 92 | 1018.2 |
| 20260506143520 | 0 | 334 | 0.0 | 3.2 | 0.00 | 0.05 | 0.00 | 92 | 1018.1 |
| 20260506143014 | 0 | 334 | 0.0 | 3.2 | 0.00 | 0.05 | 0.00 | 92 | 1018.0 |
| 20260506142509 | 0 | 334 | 0.0 | 3.2 | 0.00 | 0.05 | 0.00 | 92 | 1018.0 |
| 20260506142003 | 0 | 334 | 0.0 | 6.4 | 0.00 | 0.05 | 0.00 | 92 | 1018.0 |
| 20260506141458 | 0 | 334 | 0.0 | 6.4 | 0.00 | 0.05 | 0.00 | 92 | 1018.0 |
| 20260506140952 | 0 | 334 | 0.0 | 3.2 | 0.00 | 0.05 | 0.00 | 92 | 1018.0 |
| 20260506135938 | 0 | 334 | 0.0 | 0.0 | 0.00 | 0.05 | 0.00 | 92 | 1018.0 |
| 20260506135433 | 0 | 334 | 0.0 | 0.0 | 0.00 | 0.05 | 0.00 | 92 | 1018.0 |
| 20260506134933 | 0 | 334 | 0.0 | 0.0 | 0.00 | 0.05 | 0.00 | 92 | 1017.9 |
| 20260506134433 | 0 | 334 | 0.0 | 0.0 | 0.00 | 0.05 | 0.00 | 92 | 1017.9 |
| 20260506133931 | 0 | 334 | 0.0 | 0.0 | 0.00 | 0.05 | 0.00 | 92 | 1017.8 |
| 20260506133429 | 0 | 334 | 0.0 | 0.0 | 0.00 | 0.05 | 0.00 | 91 | 1017.8 |
| 20260506132927 | 0 | 333 | 0.0 | 0.0 | 0.00 | 0.05 | 0.00 | 91 | 1017.6 |
| 20260506132427 | 0 | 334 | 0.0 | 0.0 | 0.00 | 0.05 | 0.00 | 91 | 1017.5 |
| 20260506131927 | 0 | 333 | 0.0 | 0.0 | 0.00 | 0.05 | 0.00 | 91 | 1017.4 |
| 20260506130924 | 0 | 333 | 0.0 | 0.0 | 0.00 | 0.05 | 0.00 | 92 | 1017.2 |
| 20260506130421 | 0 | 333 | 0.0 | 0.0 | 0.00 | 0.05 | 0.00 | 92 | 1017.1 |
| 20260506125919 | 0 | 333 | 0.0 | 0.0 | 0.00 | 0.05 | 0.00 | 92 | 1016.9 |
| 20260506125419 | 0 | 333 | 0.0 | 0.0 | 0.00 | 0.05 | 0.00 | 91 | 1016.9 |
| 20260506124919 | 0 | 333 | 0.0 | 0.0 | 0.00 | 0.05 | 0.00 | 92 | 1016.7 |
| 20260506124420 | 0 | 333 | 0.0 | 0.0 | 0.00 | 0.05 | 0.00 | 91 | 1016.7 |
| 20260506123919 | 0 | 333 | 0.0 | 0.0 | 0.00 | 0.05 | 0.00 | 92 | 1016.7 |
| 20260506123417 | 0 | 333 | 0.0 | 0.0 | 0.00 | 0.05 | 0.00 | 92 | 1016.7 |
| 20260506122915 | 0 | 333 | 0.0 | 0.0 | 0.00 | 0.05 | 0.00 | 91 | 1016.7 |
| 20260506122413 | 0 | 333 | 0.0 | 0.0 | 0.00 | 0.05 | 0.00 | 92 | 1016.9 |
| 20260506121913 | 0 | 333 | 0.0 | 0.0 | 0.00 | 0.05 | 0.00 | 91 | 1016.8 |
| 20260506121408 | 0 | 333 | 0.0 | 0.0 | 0.00 | 0.05 | 0.00 | 92 | 1016.6 |
| 20260506120902 | 0 | 333 | 0.0 | 0.0 | 0.00 | 0.05 | 0.00 | 91 | 1016.6 |
| 20260506120355 | 0 | 333 | 0.0 | 0.0 | 0.00 | 0.05 | 0.00 | 91 | 1016.6 |
| 20260506115849 | 0 | 333 | 0.0 | 0.0 | 0.00 | 0.05 | 0.00 | 91 | 1016.6 |
| 20260506115343 | 0 | 333 | 0.0 | 0.0 | 0.00 | 0.05 | 0.00 | 91 | 1016.5 |
| 20260506114836 | 0 | 333 | 0.0 | 0.0 | 0.00 | 0.05 | 0.00 | 91 | 1016.5 |
| 20260506114331 | 0 | 333 | 0.0 | 0.0 | 0.00 | 0.05 | 0.00 | 91 | 1016.5 |
| 20260506113826 | 0 | 333 | 0.0 | 0.0 | 0.00 | 0.05 | 0.00 | 91 | 1016.5 |
| 20260506112813 | 0 | 333 | 0.0 | 0.0 | 0.00 | 0.05 | 0.00 | 91 | 1016.4 |
| 20260506112307 | 0 | 333 | 0.0 | 0.0 | 0.00 | 0.05 | 0.00 | 91 | 1016.2 |
| 20260506111800 | 0 | 333 | 0.0 | 0.0 | 0.00 | 0.05 | 0.00 | 91 | 1016.1 |
| 20260506111255 | 0 | 333 | 0.0 | 0.0 | 0.00 | 0.05 | 0.00 | 91 | 1016.2 |
| 20260506110749 | 0 | 333 | 0.0 | 0.0 | 0.00 | 0.05 | 0.00 | 91 | 1016.1 |
| 20260506110242 | 0 | 333 | 0.0 | 0.0 | 0.00 | 0.05 | 0.00 | 91 | 1016.0 |
| 20260506105738 | 0 | 333 | 0.0 | 0.0 | 0.00 | 0.05 | 0.00 | 91 | 1015.9 |
| 20260506105231 | 0 | 333 | 0.0 | 0.0 | 0.00 | 0.05 | 0.00 | 91 | 1015.9 |
| 20260506104724 | 0 | 333 | 0.0 | 0.0 | 0.00 | 0.05 | 0.00 | 91 | 1015.9 |
| 20260506104218 | 0 | 333 | 0.0 | 0.0 | 0.00 | 0.05 | 0.00 | 91 | 1015.9 |
| 20260506103712 | 0 | 333 | 0.0 | 0.0 | 0.00 | 0.05 | 0.00 | 91 | 1015.9 |
| 20260506103207 | 0 | 333 | 0.0 | 0.0 | 0.00 | 0.05 | 0.00 | 91 | 1015.9 |
| 20260506102155 | 0 | 333 | 0.0 | 0.0 | 0.00 | 0.05 | 0.00 | 91 | 1016.1 |
| 20260506101143 | 0 | 333 | 0.0 | 0.0 | 0.00 | 0.05 | 0.00 | 91 | 1016.1 |
| 20260506100637 | 0 | 333 | 0.0 | 0.0 | 0.00 | 0.05 | 0.00 | 91 | 1016.1 |
| 20260506095626 | 0 | 333 | 0.0 | 0.0 | 0.00 | 0.05 | 0.00 | 91 | 1016.2 |
| 20260506095119 | 0 | 333 | 0.0 | 0.0 | 0.00 | 0.05 | 0.00 | 91 | 1016.0 |
| 20260506094614 | 0 | 333 | 0.0 | 0.0 | 0.00 | 0.05 | 0.00 | 91 | 1016.0 |
| 20260506093613 | 0 | 333 | 0.0 | 0.0 | 0.00 | 0.05 | 0.00 | 91 | 1015.9 |
| 20260506093056 | 0 | 333 | 0.0 | 0.0 | 0.00 | 0.05 | 0.00 | 91 | 1015.9 |
| 20260506092549 | 0 | 333 | 0.0 | 0.0 | 0.00 | 0.05 | 0.00 | 91 | 1015.9 |
| 20260506092042 | 0 | 333 | 0.0 | 0.0 | 0.00 | 0.05 | 0.00 | 91 | 1015.9 |
| 20260506090525 | 0 | 333 | 0.0 | 0.0 | 0.00 | 0.05 | 0.00 | 91 | 1015.9 |
| 20260506090018 | 0 | 333 | 0.0 | 0.0 | 0.00 | 0.05 | 0.00 | 91 | 1015.8 |
| 20260506085513 | 0 | 333 | 0.0 | 0.0 | 0.00 | 0.05 | 0.00 | 91 | 1015.9 |
| 20260506085008 | 0 | 333 | 0.0 | 0.0 | 0.00 | 0.05 | 0.00 | 91 | 1015.8 |
| 20260506083955 | 0 | 333 | 0.0 | 0.0 | 0.00 | 0.05 | 0.00 | 91 | 1015.7 |
| 20260506083455 | 0 | 333 | 0.0 | 0.0 | 0.00 | 0.05 | 0.00 | 91 | 1015.7 |
| 20260506082952 | 0 | 333 | 0.0 | 0.0 | 0.00 | 0.05 | 0.00 | 91 | 1015.7 |
| 20260506082453 | 0 | 333 | 0.0 | 0.0 | 0.00 | 0.05 | 0.00 | 91 | 1015.8 |
| 20260506081953 | 0 | 333 | 0.0 | 0.0 | 0.00 | 0.05 | 0.00 | 91 | 1016.0 |
| 20260506081451 | 0 | 333 | 0.0 | 0.0 | 0.00 | 0.05 | 0.00 | 91 | 1016.2 |
| 20260506073448 | 0 | 333 | 0.0 | 0.0 | 0.00 | 0.05 | 0.00 | 91 | 1015.9 |
| 20260506072942 | 0 | 333 | 0.0 | 0.0 | 0.00 | 0.05 | 0.00 | 91 | 1015.9 |
| 20260506071943 | 0 | 333 | 0.0 | 0.0 | 0.00 | 0.05 | 0.00 | 91 | 1016.0 |
| 20260506071443 | 0 | 333 | 0.0 | 0.0 | 0.00 | 0.05 | 0.00 | 91 | 1016.0 |
| 20260506070942 | 0 | 333 | 0.0 | 0.0 | 0.00 | 0.05 | 0.00 | 91 | 1016.0 |
| 20260506062442 | 0 | 333 | 0.0 | 0.0 | 0.00 | 0.05 | 0.00 | 91 | 1015.5 |
| 20260506061942 | 0 | 333 | 0.0 | 0.0 | 0.00 | 0.05 | 0.00 | 91 | 1015.4 |
| 20260506060944 | 0 | 333 | 0.0 | 0.0 | 0.00 | 0.05 | 0.00 | 91 | 1015.5 |
| 20260506060441 | 0 | 333 | 0.0 | 0.0 | 0.00 | 0.05 | 0.00 | 91 | 1015.5 |
| 20260506050837 | 0 | 333 | 0.0 | 0.0 | 0.00 | 0.05 | 0.05 | 91 | 1015.0 |
| 20260506050331 | 0 | 333 | 0.0 | 0.0 | 0.00 | 0.05 | 0.05 | 91 | 1015.0 |
| 20260506044307 | 0 | 333 | 0.0 | 1.6 | 0.00 | 0.05 | 0.05 | 91 | 1015.1 |
| 20260506043800 | 0 | 333 | 0.0 | 1.6 | 0.00 | 0.05 | 0.05 | 90 | 1015.2 |
| 20260506043257 | 0 | 333 | 0.0 | 1.6 | 0.00 | 0.05 | 0.05 | 90 | 1015.2 |
| 20260506042757 | 0 | 333 | 0.0 | 1.6 | 0.00 | 0.05 | 0.05 | 90 | 1015.1 |
| 20260506041759 | 0 | 333 | 0.0 | 4.8 | 0.00 | 0.05 | 0.05 | 90 | 1015.1 |
| 20260506040756 | 0 | 333 | 0.0 | 3.2 | 0.00 | 0.05 | 0.05 | 90 | 1015.0 |
| 20260506040257 | 0 | 333 | 0.0 | 3.2 | 0.00 | 0.05 | 0.05 | 90 | 1015.0 |
| 20260506035757 | 0 | 333 | 0.0 | 3.2 | 0.00 | 0.05 | 0.05 | 90 | 1015.1 |
| 20260506035254 | 0 | 333 | 0.0 | 3.2 | 0.00 | 0.05 | 0.05 | 90 | 1015.0 |
| 20260506034753 | 0 | 333 | 0.0 | 1.6 | 0.00 | 0.05 | 0.05 | 90 | 1015.0 |
| 20260506034253 | 0 | 333 | 0.0 | 1.6 | 0.00 | 0.05 | 0.05 | 90 | 1015.0 |
| 20260506033753 | 0 | 333 | 0.0 | 4.8 | 0.00 | 0.05 | 0.05 | 90 | 1014.7 |
| 20260506033251 | 0 | 333 | 0.0 | 4.8 | 0.00 | 0.05 | 0.05 | 90 | 1014.6 |
| 20260506032249 | 0 | 333 | 0.0 | 4.8 | 0.00 | 0.05 | 0.05 | 90 | 1014.6 |
| 20260506031749 | 0 | 333 | 0.0 | 3.2 | 0.00 | 0.05 | 0.05 | 90 | 1014.6 |
| 20260506030748 | 0 | 333 | 0.0 | 3.2 | 0.00 | 0.05 | 0.05 | 90 | 1014.4 |
| 20260506030249 | 0 | 333 | 0.0 | 3.2 | 0.00 | 0.05 | 0.05 | 90 | 1014.3 |
| 20260506025246 | 0 | 333 | 0.0 | 4.8 | 0.00 | 0.05 | 0.05 | 90 | 1014.1 |
| 20260506024746 | 0 | 333 | 0.0 | 1.6 | 0.00 | 0.05 | 0.05 | 90 | 1014.0 |
| 20260506024248 | 0 | 333 | 0.0 | 1.6 | 0.00 | 0.05 | 0.05 | 90 | 1013.9 |
| 20260506023748 | 0 | 333 | 0.0 | 1.6 | 0.00 | 0.05 | 0.05 | 90 | 1013.8 |
| 20260506023248 | 0 | 333 | 0.0 | 0.0 | 0.00 | 0.05 | 0.05 | 90 | 1013.7 |
| 20260506022748 | 0 | 333 | 0.0 | 0.0 | 0.00 | 0.05 | 0.05 | 90 | 1013.6 |
| 20260506021743 | 0 | 333 | 0.0 | 0.0 | 0.00 | 0.05 | 0.05 | 90 | 1013.4 |
| 20260506020743 | 0 | 333 | 0.0 | 3.2 | 0.00 | 0.05 | 0.05 | 90 | 1013.3 |
| 20260506020244 | 0 | 333 | 0.0 | 3.2 | 0.00 | 0.05 | 0.05 | 90 | 1013.3 |
| 20260506015742 | 0 | 333 | 0.0 | 1.6 | 0.00 | 0.05 | 0.05 | 90 | 1013.2 |
| 20260506015244 | 0 | 333 | 0.0 | 3.2 | 0.00 | 0.05 | 0.05 | 90 | 1013.1 |
| 20260506014742 | 0 | 333 | 0.0 | 3.2 | 0.00 | 0.05 | 0.05 | 89 | 1013.1 |
| 20260506014242 | 0 | 333 | 0.0 | 1.6 | 0.00 | 0.05 | 0.05 | 89 | 1013.2 |
| 20260506013738 | 0 | 333 | 0.0 | 1.6 | 0.00 | 0.05 | 0.05 | 89 | 1013.1 |
| 20260506013239 | 0 | 333 | 0.0 | 1.6 | 0.00 | 0.05 | 0.05 | 89 | 1013.0 |
| 20260506011738 | 0 | 333 | 0.0 | 1.6 | 0.00 | 0.05 | 0.05 | 89 | 1012.9 |
| 20260506011238 | 0 | 333 | 0.0 | 1.6 | 0.00 | 0.05 | 0.05 | 89 | 1012.6 |
| 20260506010738 | 0 | 333 | 0.0 | 1.6 | 0.00 | 0.05 | 0.05 | 89 | 1012.6 |
| 20260506010238 | 0 | 333 | 0.0 | 1.6 | 0.00 | 0.05 | 0.05 | 89 | 1012.7 |
| 20260506005738 | 0 | 333 | 0.0 | 1.6 | 0.00 | 0.05 | 0.05 | 89 | 1012.7 |
| 20260506005238 | 0 | 333 | 0.0 | 1.6 | 0.00 | 0.05 | 0.05 | 89 | 1012.7 |
| 20260506004232 | 0 | 333 | 0.0 | 1.6 | 0.00 | 0.05 | 0.05 | 89 | 1012.5 |
| 20260506003217 | 0 | 333 | 0.0 | 1.6 | 0.00 | 0.05 | 0.05 | 89 | 1012.6 |
| 20260506002712 | 0 | 333 | 0.0 | 1.6 | 0.00 | 0.05 | 0.05 | 89 | 1012.4 |
| 20260506002206 | 0 | 333 | 0.0 | 1.6 | 0.00 | 0.05 | 0.05 | 89 | 1012.5 |
| 20260506001155 | 0 | 333 | 0.0 | 1.6 | 0.00 | 0.05 | 0.05 | 89 | 1012.3 |
| 20260506000142 | 0 | 333 | 0.0 | 1.6 | 0.00 | 0.05 | 0.05 | 89 | 1012.5 |
| 20260505235636 | 0 | 333 | 0.0 | 0.0 | 0.00 | 0.05 | 0.05 | 89 | 1012.3 |
| 20260505234623 | 0 | 333 | 0.0 | 1.6 | 0.00 | 0.05 | 0.05 | 88 | 1012.2 |
| 20260505234117 | 1 | 333 | 0.0 | 1.6 | 0.00 | 0.05 | 0.05 | 88 | 1012.0 |
| 20260505233612 | 1 | 333 | 0.0 | 3.2 | 0.00 | 0.05 | 0.05 | 88 | 1012.0 |
| 20260505232600 | 1 | 333 | 0.0 | 4.8 | 0.00 | 0.05 | 0.05 | 88 | 1012.2 |
| 20260505231547 | 2 | 250 | 1.6 | 9.7 | 0.00 | 0.05 | 0.05 | 88 | 1012.2 |
| 20260505231042 | 2 | 355 | 1.6 | 9.7 | 0.00 | 0.05 | 0.05 | 88 | 1012.3 |
| 20260505230536 | 3 | 319 | 1.6 | 8.0 | 0.00 | 0.05 | 0.05 | 89 | 1012.4 |
| 20260505225524 | 3 | 316 | 0.0 | 6.4 | 0.03 | 0.05 | 0.05 | 88 | 1011.8 |
| 20260505225017 | 3 | 316 | 1.6 | 6.4 | 0.03 | 0.05 | 0.05 | 88 | 1011.6 |
| 20260505224511 | 3 | 315 | 1.6 | 9.7 | 0.03 | 0.05 | 0.05 | 88 | 1011.5 |
| 20260505224006 | 3 | 351 | 1.6 | 9.7 | 0.03 | 0.05 | 0.05 | 89 | 1011.3 |
| 20260505223501 | 3 | 345 | 1.6 | 8.0 | 0.03 | 0.05 | 0.05 | 89 | 1011.2 |
| 20260505222954 | 3 | 351 | 1.6 | 8.0 | 0.03 | 0.05 | 0.05 | 88 | 1011.3 |
| 20260505221942 | 3 | 355 | 1.6 | 12.9 | 0.03 | 0.05 | 0.05 | 88 | 1011.3 |
| 20260505221435 | 3 | 355 | 1.6 | 12.9 | 0.03 | 0.05 | 0.05 | 88 | 1011.3 |
| 20260505220424 | 3 | 355 | 1.6 | 11.3 | 0.03 | 0.05 | 0.05 | 88 | 1011.0 |
| 20260505215917 | 4 | 355 | 1.6 | 6.4 | 0.00 | 0.03 | 0.03 | 88 | 1011.0 |
| 20260505215411 | 4 | 325 | 1.6 | 11.3 | 0.00 | 0.03 | 0.03 | 88 | 1011.1 |
| 20260505214906 | 5 | 75 | 0.0 | 11.3 | 0.00 | 0.03 | 0.03 | 88 | 1011.1 |
| 20260505214359 | 5 | 335 | 1.6 | 6.4 | 0.00 | 0.03 | 0.03 | 88 | 1011.0 |
| 20260505213854 | 5 | 345 | 0.0 | 6.4 | 0.00 | 0.03 | 0.03 | 88 | 1011.0 |
| 20260505213348 | 5 | 348 | 0.0 | 3.2 | 0.00 | 0.03 | 0.03 | 88 | 1011.0 |
| 20260505212841 | 5 | 347 | 0.0 | 4.8 | 0.00 | 0.03 | 0.03 | 88 | 1011.1 |
| 20260505212335 | 5 | 65 | 0.0 | 6.4 | 0.00 | 0.03 | 0.03 | 88 | 1011.1 |
| 20260505211325 | 5 | 76 | 0.0 | 6.4 | 0.00 | 0.03 | 0.03 | 89 | 1011.0 |
| 20260505210819 | 5 | 65 | 0.0 | 6.4 | 0.00 | 0.03 | 0.03 | 89 | 1011.1 |
| 20260505210312 | 5 | 78 | 0.0 | 4.8 | 0.00 | 0.03 | 0.03 | 89 | 1011.1 |
| 20260505205806 | 5 | 79 | 0.0 | 3.2 | 0.00 | 0.03 | 0.03 | 89 | 1011.3 |
| 20260505204247 | 5 | 86 | 0.0 | 6.4 | 0.00 | 0.03 | 0.03 | 89 | 1011.7 |
| 20260505203247 | 5 | 87 | 0.0 | 3.2 | 0.00 | 0.03 | 0.03 | 89 | 1011.9 |
| 20260505202744 | 5 | 87 | 0.0 | 4.8 | 0.00 | 0.03 | 0.03 | 89 | 1012.0 |
| 20260505201742 | 5 | 87 | 0.0 | 3.2 | 0.00 | 0.03 | 0.03 | 89 | 1012.3 |
| 20260505200740 | 5 | 87 | 0.0 | 4.8 | 0.00 | 0.03 | 0.03 | 89 | 1012.2 |
| 20260505200238 | 5 | 87 | 0.0 | 4.8 | 0.00 | 0.03 | 0.03 | 89 | 1012.2 |
| 20260505195736 | 5 | 88 | 0.0 | 3.2 | 0.00 | 0.03 | 0.03 | 89 | 1012.3 |
| 20260505195236 | 5 | 88 | 0.0 | 4.8 | 0.00 | 0.03 | 0.03 | 89 | 1012.3 |
| 20260505194735 | 5 | 88 | 0.0 | 4.8 | 0.00 | 0.03 | 0.03 | 89 | 1012.3 |
| 20260505194234 | 5 | 88 | 0.0 | 4.8 | 0.00 | 0.03 | 0.03 | 89 | 1012.2 |
| 20260505193734 | 5 | 88 | 0.0 | 4.8 | 0.00 | 0.03 | 0.03 | 89 | 1012.2 |
| 20260505193232 | 5 | 82 | 0.0 | 4.8 | 0.00 | 0.03 | 0.03 | 89 | 1012.0 |
| 20260505192732 | 5 | 82 | 1.6 | 6.4 | 0.00 | 0.03 | 0.03 | 89 | 1012.0 |
| 20260505192234 | 5 | 82 | 0.0 | 6.4 | 0.00 | 0.03 | 0.03 | 89 | 1011.9 |
| 20260505191731 | 5 | 85 | 0.0 | 3.2 | 0.00 | 0.03 | 0.03 | 90 | 1011.9 |
| 20260505190733 | 5 | 88 | 0.0 | 4.8 | 0.00 | 0.03 | 0.03 | 90 | 1012.2 |
| 20260505185724 | 5 | 88 | 0.0 | 3.2 | 0.00 | 0.03 | 0.03 | 90 | 1012.4 |
| 20260505185224 | 5 | 88 | 0.0 | 3.2 | 0.00 | 0.03 | 0.03 | 90 | 1012.4 |
| 20260505184723 | 5 | 88 | 1.6 | 4.8 | 0.00 | 0.03 | 0.03 | 90 | 1012.5 |
| 20260505184224 | 5 | 88 | 0.0 | 4.8 | 0.00 | 0.03 | 0.03 | 90 | 1012.6 |
| 20260505183724 | 5 | 88 | 0.0 | 3.2 | 0.00 | 0.03 | 0.03 | 90 | 1012.7 |
| 20260505183223 | 5 | 88 | 0.0 | 3.2 | 0.00 | 0.03 | 0.03 | 90 | 1012.7 |
| 20260505182724 | 4 | 88 | 0.0 | 3.2 | 0.00 | 0.03 | 0.03 | 90 | 1012.7 |